This is the latest recevied weather packets stored in our database for station/object OE2ATN. If no packets are shown the sender has not sent any weather packets the latest 10 day(s).
| Time | Temp. | Humidity | Pressure | Rain* | Wind** | Luminosity | Snow |
|---|---|---|---|---|---|---|---|
| 1777806917 | 24.44° C | 25% | 1021.9 hPa | 0 mm | - | - | - |
| 1777806616 | 24.44° C | 29% | 1022 hPa | 0 mm | - | - | - |
| 1777806317 | 24.44° C | 28% | 1022 hPa | 0 mm | - | - | - |
| 1777806017 | 24.44° C | 27% | 1022.1 hPa | 0 mm | - | - | - |
| 1777805717 | 24.44° C | 28% | 1022.2 hPa | 0 mm | - | - | - |
| 1777805417 | 24.44° C | 28% | 1022.2 hPa | 0 mm | - | - | - |
| 1777805116 | 23.89° C | 27% | 1022.4 hPa | 0 mm | - | - | - |
| 1777804816 | 23.33° C | 38% | 1022.6 hPa | 0 mm | - | - | - |
| 1777804515 | 22.78° C | 41% | 1022.5 hPa | 0 mm | - | - | - |
| 1777804215 | 22.22° C | 40% | 1022.7 hPa | 0 mm | - | - | - |
| 1777803916 | 21.67° C | 43% | 1022.7 hPa | 0 mm | - | - | - |
| 1777803616 | 21.67° C | 43% | 1022.8 hPa | 0 mm | - | - | - |
| 1777803316 | 21.11° C | 44% | 1022.9 hPa | 0 mm | - | - | - |
| 1777803016 | 21.11° C | 46% | 1023 hPa | 0 mm | - | - | - |
| 1777802715 | 20.56° C | 47% | 1023 hPa | 0 mm | - | - | - |
| 1777802416 | 20.56° C | 46% | 1023.2 hPa | 0 mm | - | - | - |
| 1777802115 | 20° C | 48% | 1023.3 hPa | 0 mm | - | - | - |
| 1777801815 | 20° C | 47% | 1023.4 hPa | 0 mm | - | - | - |
| 1777801514 | 19.44° C | 49% | 1023.5 hPa | 0 mm | - | - | - |
| 1777801214 | 18.89° C | 54% | 1023.7 hPa | 0 mm | - | - | - |
| 1777800914 | 18.89° C | 54% | 1023.7 hPa | 0 mm | - | - | - |
| 1777800614 | 18.33° C | 49% | 1023.9 hPa | 0 mm | - | - | - |
| 1777800314 | 18.33° C | 49% | 1023.9 hPa | 0 mm | - | - | - |
| 1777800014 | 17.78° C | 50% | 1024 hPa | 0 mm | - | - | - |
| 1777799715 | 17.78° C | 52% | 1024.1 hPa | 0 mm | - | - | - |
* Rain latest hour (hover to see other rain measurements)
** Current wind speed in m/s (hover to see current wind gust speed)